Temperature
11 10 10 11 11 11 11 11 11 12 13 12 11 11 12 14 14 13 14 13 13 12 12 12 11 11 11 10 10 10 10 10 9 9 9 9 9 9 9 10 10 10 10 10
10 10 11 12 12 11 10 10 10 12 12 12 10 11 12 13 13 13 13 13 12 12 11 11 11 10 10 10 10 9 9 9 9 9 9 9 9 9 9 9 9 9 9 9
10 11 11 11 11 10 10 10 10 10 10 11 10 10 12 13 13 13 13 12 12 12 11 11 10 10 10 10 9 9 9 9 8 8 8 8 8 8 8 9 9 9 9 9
11 11 11 10 10 10 9 11 10 10 8 8 10 8 11 12 12 12 12 12 12 11 11 10 10 10 9 9 9 9 8 8 8 8 8 8 8 8 8 8 8 9 9 9
10 10 10 9 10 10 10 10 9 9 8 7 9 8 9 12 11 11 11 12 12 11 11 10 10 9 9 9 9 8 8 8 8 8 8 8 8 8 8 8 8 8 8 8
10 10 10 10 10 10 9 9 9 8 7 6 8 8 9 11 11 11 11 12 11 11 10 10 9 9 9 9 8 8 8 8 8 7 7 7 7 7 7 8 8 8 8 8
9 9 9 9 8 9 8 7 7 7 6 7 10 10 10 12 12 11 11 11 11 10 10 10 9 9 9 8 8 8 8 7 7 7 7 7 7 7 7 7 7 7 8 8
8 9 9 9 8 8 7 8 7 7 7 9 10 9 10 12 11 11 11 11 10 10 10 9 9 9 8 8 8 8 7 7 7 7 7 7 7 7 7 7 7 7 7 7
8 8 9 9 9 9 8 7 8 7 6 6 8 10 11 11 10 10 10 10 10 10 10 9 9 9 8 8 8 7 7 7 7 7 6 6 6 6 6 7 7 7 7 7
8 7 8 8 8 7 7 8 6 6 6 6 8 10 9 9 9 9 9 9 10 10 9 9 9 8 8 8 7 7 7 6 6 6 6 6 6 6 6 6 6 6 7 7
7 6 6 7 6 7 6 6 6 6 6 6 7 8 10 9 9 9 9 9 9 9 9 9 8 8 8 7 7 7 6 6 6 6 6 6 6 6 6 6 6 6 6 6
6 5 5 6 7 8 7 6 6 5 5 5 5 7 10 9 9 9 9 9 9 9 8 8 8 7 7 7 6 6 6 6 6 6 6 6 6 5 5 5 6 6 6 6
5 4 4 5 5 5 5 6 6 5 5 5 5 7 9 8 9 9 9 9 8 8 8 7 7 7 6 6 6 6 6 5 5 5 5 5 5 5 5 5 5 5 5 5
5 3 4 5 5 4 4 4 5 4 4 4 5 6 7 8 8 8 8 8 8 7 7 7 6 6 6 6 5 5 5 5 5 5 5 5 4 4 4 5 5 5 5 5
4 3 3 4 5 5 4 4 4 4 4 4 5 6 7 7 7 7 8 7 7 6 6 6 6 5 5 5 5 5 5 5 4 4 4 4 4 4 4 4 4 4 4 4
2 2 3 3 5 5 4 5 5 5 5 5 5 5 6 7 7 7 7 7 6 6 6 5 5 5 5 5 5 4 4 4 4 4 3 3 3 3 4 4 4 4 4 4
2 2 2 3 4 4 3 5 5 5 5 5 5 5 6 6 6 6 6 6 6 5 5 4 4 4 4 4 4 4 4 3 3 3 3 3 3 3 3 3 3 3 3 3
2 2 2 2 3 2 5 7 7 6 6 6 5 6 6 6 6 6 6 5 5 4 4 4 3 3 3 3 3 3 3 3 3 3 2 2 2 2 2 2 3 3 3 3
2 2 2 2 2 3 5 6 6 5 4 5 5 5 5 6 5 5 5 4 4 3 3 3 3 3 3 3 3 3 3 2 2 2 2 2 2 2 2 2 2 2 3 3
2 2 1 2 2 3 5 5 6 5 3 5 5 5 4 4 3 3 4 4 3 3 3 3 3 3 2 2 2 2 2 2 2 2 2 1 1 1 1 1 2 2 2 2
1 1 1 1 2 3 4 5 5 3 2 4 5 4 4 3 3 3 3 3 3 2 2 2 2 2 2 2 2 2 2 1 1 1 1 1 1 1 1 1 1 1 1 2
1 1 1 1 1 2 4 4 3 3 4 4 4 4 3 3 3 3 3 2 2 2 2 2 2 2 2 1 1 1 1 1 1 1 1 1 1 1 1 1 1 1 1 1
2 2 2 2 2 3 4 4 4 4 4 4 4 3 3 2 2 2 2 1 1 1 1 1 1 1 1 1 1 1 1 1 1 1 1 1 1 1 1 1 1 1 1 1
2 3 2 2 2 3 4 4 4 4 4 3 3 2 2 2 1 1 1 1 1 1 1 1 1 1 1 0 0 0 0 0 0 0 0 0 0 0 1 1 1 1 1 1
2 2 1 1 2 3 3 3 3 3 3 2 2 2 1 1 1 0 0 0 0 0 0 0 -0 -0 -0 -0 0 -0 -0 -0 -0 -0 -0 -0 -0 0 0 0 0 0 0 1
2 1 1 1 2 2 2 3 2 2 2 1 1 1 0 0 -0 -0 -1 -1 -1 -1 -1 -1 -1 -1 -1 -1 -1 -0 -1 -1 -1 -0 -0 -0 -0 -0 -0 -0 0 0 0 1
Wind_Speed
7 5 7 7 8 7 7 9 11 11 7 8 12 16 16 13 9 8 7 6 5 5 3 2 2 3 3 4 4 4 4 4 4 4 4 4 5 4 5 6 7 6 6 7
6 10 8 5 4 7 9 11 12 11 5 7 12 18 18 14 10 7 5 5 5 4 2 2 2 3 4 4 4 4 4 4 4 4 4 4 4 4 5 5 6 6 6 7
11 3 2 5 7 9 10 10 10 10 11 10 10 12 11 7 6 5 6 5 4 3 3 3 3 3 3 4 4 4 5 5 5 5 4 4 3 3 5 5 6 6 7 7
9 7 6 7 9 8 8 5 7 9 7 6 5 8 7 6 6 6 6 5 4 3 3 2 2 3 4 4 3 3 4 5 5 4 5 7 6 6 6 5 5 6 6 7
6 4 5 9 8 8 6 4 6 9 8 8 7 7 9 6 6 7 6 6 4 4 3 2 2 3 4 3 2 3 4 5 5 5 6 7 6 6 5 5 6 7 7 8
10 4 4 5 4 5 4 5 8 7 4 7 9 8 7 4 5 5 5 4 4 3 2 2 3 2 2 2 2 3 4 5 5 5 6 7 7 7 6 7 6 6 6 6
8 10 7 4 4 4 3 2 2 2 4 7 5 6 7 3 1 3 3 2 1 1 2 2 3 3 2 3 3 4 4 5 5 5 6 6 7 7 8 8 7 7 6 6
5 5 9 7 6 4 7 5 4 4 4 3 3 7 4 2 3 4 2 1 1 2 2 3 4 3 3 4 4 4 5 5 5 5 6 6 7 6 6 7 7 7 6 6
4 3 4 5 4 3 4 6 2 2 5 5 7 6 3 1 3 2 1 0 2 3 3 3 3 3 3 4 4 5 5 5 5 6 6 6 7 6 6 7 7 6 6 6
2 4 3 3 3 5 5 2 2 3 4 5 7 7 3 1 1 1 1 2 3 3 3 3 3 3 4 4 4 5 6 6 5 5 5 5 6 6 7 6 6 6 6 6
2 3 3 3 8 8 7 5 5 4 4 4 5 4 2 2 1 1 3 3 4 4 5 4 4 4 4 4 4 5 5 5 5 5 5 5 5 6 6 5 6 6 6 6
4 3 5 6 3 3 6 7 7 5 5 5 5 5 3 2 1 2 4 5 5 4 4 4 4 4 5 5 5 4 4 4 4 4 4 4 4 4 4 4 5 5 5 6
4 4 3 3 2 2 4 6 7 5 3 5 6 6 1 3 4 4 5 5 6 5 5 5 5 5 5 5 5 4 4 3 3 3 3 4 4 4 4 4 4 4 4 5
3 4 7 7 3 2 4 6 7 7 6 7 10 12 10 9 8 8 6 6 6 6 6 5 5 5 5 5 5 4 3 3 3 3 3 4 4 4 5 4 4 4 4 5
3 5 7 10 9 6 8 9 10 12 12 10 12 15 15 11 10 9 8 7 7 7 7 6 5 6 6 5 5 4 4 3 3 3 3 4 4 4 4 3 3 4 4 5
3 4 5 9 11 10 12 12 13 14 15 17 17 18 13 10 9 8 7 6 6 7 7 6 6 7 7 6 5 4 4 4 4 4 4 4 4 4 4 4 4 5 4 5
5 5 4 6 7 7 11 13 14 12 11 11 14 14 10 9 8 6 6 5 6 6 7 7 7 6 6 6 4 4 4 4 4 4 4 4 4 5 5 5 5 5 5 5
7 6 4 5 4 9 8 4 7 10 11 9 8 7 6 6 5 5 5 5 6 6 6 7 7 7 6 5 4 4 4 4 4 5 5 5 5 6 6 5 6 6 5 5
9 7 5 4 6 8 7 3 3 4 6 5 6 6 5 5 5 5 4 5 5 5 6 6 5 5 6 6 5 5 4 4 4 5 5 5 6 6 6 6 6 6 5 4
7 7 6 5 5 5 2 1 2 1 3 2 2 4 5 5 5 5 5 6 6 6 5 5 5 5 6 6 5 5 5 4 5 5 5 5 5 5 6 5 5 5 4 4
6 6 9 8 7 6 3 1 3 2 4 2 2 4 5 4 4 5 6 7 6 7 6 6 6 5 5 5 5 5 5 5 5 5 4 5 5 5 5 5 4 3 3 3
7 6 7 6 7 7 1 3 2 3 2 2 3 4 5 5 6 6 7 7 7 7 7 6 5 5 5 5 5 5 6 5 5 4 4 4 5 5 5 4 3 2 2 2
6 6 4 6 6 3 1 2 3 3 3 4 3 4 4 5 6 7 7 7 7 7 7 6 6 6 5 5 5 6 6 4 4 4 5 5 4 4 4 2 2 1 1 1
4 3 3 5 5 4 5 5 4 3 4 4 3 4 4 6 7 8 7 7 7 7 7 6 6 6 6 5 5 5 6 4 4 5 5 4 4 4 3 1 0 0 0 0
5 3 5 7 7 6 5 4 4 4 4 4 4 4 4 6 7 7 7 7 6 7 6 5 5 6 6 5 5 5 5 4 4 4 4 4 3 2 2 1 1 0 0 1
7 7 6 7 5 5 5 4 4 4 4 3 4 5 5 5 6 7 7 6 6 7 6 6 6 6 6 6 5 5 4 4 3 3 3 3 2 2 1 1 2 3 2 3
Wind_Direction
192 226 230 225 220 255 288 287 284 283 294 288 273 276 277 274 256 245 242 248 253 246 241 208 220 241 253 260 263 260 255 255 255 240 234 235 242 238 229 222 221 215 220 214
223 234 242 251 254 253 260 270 275 285 295 297 280 279 276 264 244 232 227 230 242 248 258 242 239 245 252 263 263 258 257 260 256 244 240 231 238 237 233 225 222 214 212 211
233 239 209 239 247 253 254 255 272 290 311 279 276 282 257 234 223 220 218 216 228 237 246 262 268 266 264 269 259 259 254 255 251 251 257 256 246 240 234 227 222 219 213 215
250 241 236 247 248 246 264 272 277 288 297 286 284 290 269 229 209 212 209 204 204 225 235 253 275 282 280 279 265 252 258 252 247 243 243 242 240 240 237 228 221 220 216 218
245 202 218 238 245 247 257 310 285 276 272 280 250 249 274 219 215 211 203 194 183 193 212 256 280 284 291 282 256 244 261 258 248 245 241 241 244 245 240 235 225 224 222 221
255 254 236 247 267 259 274 286 270 253 256 262 230 221 272 230 210 195 183 179 171 175 199 253 270 278 300 306 280 259 264 262 257 247 243 244 247 247 242 241 231 225 224 222
242 222 204 212 235 220 219 237 286 240 221 247 225 220 249 272 153 145 149 160 172 204 223 256 279 291 306 296 280 267 268 275 270 253 244 245 248 247 243 243 233 229 226 227
252 233 184 186 208 200 209 212 211 245 257 284 274 240 240 156 88 89 100 118 255 262 259 264 276 280 289 288 284 275 271 271 272 264 254 244 242 246 247 244 238 231 228 229
242 249 143 178 202 213 201 219 254 286 287 279 252 238 242 150 118 116 125 306 289 261 258 266 279 291 291 288 288 284 277 275 268 264 262 250 242 243 251 250 244 238 229 232
258 263 212 163 191 238 252 251 175 203 247 264 265 251 241 198 200 17 329 301 301 305 286 270 282 304 304 289 289 292 285 281 274 265 262 263 257 253 250 250 248 244 230 234
208 230 215 185 204 203 197 213 209 225 239 247 274 270 46 84 50 349 320 321 324 319 312 300 297 301 299 296 291 286 290 292 290 282 273 265 264 259 253 250 251 246 239 233
195 215 249 239 232 236 213 209 192 205 235 232 260 269 16 34 37 355 340 335 325 314 320 320 318 315 313 310 306 295 298 300 295 292 292 276 268 269 266 265 263 257 255 242
178 191 250 248 222 208 234 230 218 221 247 238 244 259 316 353 337 325 314 315 316 320 326 326 325 320 316 314 315 311 309 313 313 311 307 298 284 277 270 271 278 272 269 263
186 208 217 232 251 212 248 247 229 217 229 245 244 265 286 298 307 315 320 321 323 326 330 331 331 326 323 324 320 320 322 318 317 313 303 303 296 285 276 276 279 277 279 276
172 233 243 262 275 263 254 253 236 229 231 241 259 268 277 293 308 316 320 326 331 335 336 332 333 333 331 328 326 333 330 324 323 321 315 310 306 308 304 290 280 285 280 283
192 242 257 259 255 252 260 253 243 239 238 243 260 270 276 295 303 307 313 323 326 329 329 332 334 328 325 324 324 331 329 329 328 319 312 311 312 312 308 302 288 289 287 287
203 218 244 259 269 276 259 241 236 235 231 236 248 260 283 294 305 310 315 324 324 323 327 333 329 323 321 323 326 325 318 322 324 316 312 315 317 310 306 307 300 285 280 282
211 212 229 254 258 242 245 228 221 235 247 242 256 275 293 306 316 331 336 339 335 335 338 338 332 330 326 325 324 317 318 322 317 313 311 315 317 311 310 307 301 292 282 281
207 205 227 230 241 262 266 243 212 222 257 253 262 285 311 323 328 335 353 358 345 334 330 325 323 322 324 324 325 324 320 316 314 311 314 317 313 308 308 302 298 300 301 295
206 206 226 234 240 245 280 37 63 109 264 297 305 311 321 332 317 311 346 353 346 334 327 323 323 322 321 319 321 320 309 309 305 304 307 309 309 306 302 298 299 305 307 299
192 206 221 236 247 258 282 67 76 189 253 345 342 320 317 303 283 305 332 336 333 325 321 323 321 319 315 319 314 305 303 301 300 305 308 308 308 306 301 298 297 304 311 311
197 201 209 216 232 243 116 94 168 252 314 336 325 324 324 318 317 322 324 323 323 323 320 317 313 309 311 317 313 303 298 295 302 302 300 301 301 304 304 296 297 308 323 337
207 206 207 211 230 270 208 255 268 286 298 309 315 317 316 310 308 311 311 313 314 314 312 311 306 301 304 310 310 304 301 302 308 305 301 299 300 299 299 286 290 316 359 14
246 234 255 267 264 276 283 281 278 293 306 315 320 318 311 301 301 303 305 307 307 305 305 307 307 305 302 302 305 303 306 309 311 306 302 301 301 305 311 315 307 36 46 71
257 243 252 263 271 277 271 285 303 312 316 314 315 311 304 302 300 301 304 304 306 308 306 306 304 303 304 306 309 312 314 314 313 308 305 309 311 314 332 352 20 26 304 218
240 236 238 254 269 273 285 304 316 311 312 319 320 313 312 304 298 300 300 301 304 305 307 308 306 305 307 308 302 302 305 305 301 303 309 314 317 330 340 12 13 9 7 9
Height
1464 1466 1463 1459 1459 1459 1458 1458 1457 1450 1446 1446 1444 1438 1432 1430 1429 1429 1430 1431 1432 1433 1433 1434 1435 1435 1434 1434 1434 1433 1433 1432 1432 1431 1431 1431 1432 1433 1434 1436 1437 1437 1439 1441
1462 1460 1456 1454 1455 1457 1458 1459 1455 1447 1444 1445 1441 1435 1426 1423 1422 1423 1425 1426 1428 1429 1429 1430 1431 1431 1430 1430 1429 1429 1428 1428 1427 1427 1427 1427 1427 1428 1429 1430 1432 1432 1434 1436
1456 1453 1452 1453 1455 1456 1455 1456 1453 1451 1447 1443 1442 1434 1420 1416 1417 1419 1421 1423 1424 1425 1426 1426 1427 1427 1427 1426 1425 1424 1424 1423 1423 1423 1423 1422 1422 1423 1424 1425 1426 1427 1428 1430
1451 1449 1451 1453 1453 1453 1454 1449 1450 1451 1455 1450 1443 1445 1420 1414 1415 1416 1417 1419 1421 1422 1423 1423 1423 1423 1422 1421 1421 1420 1420 1419 1419 1419 1418 1418 1417 1418 1418 1418 1419 1421 1423 1425
1448 1447 1450 1451 1449 1449 1449 1449 1450 1450 1452 1453 1443 1446 1425 1412 1413 1413 1414 1415 1417 1419 1420 1420 1420 1420 1418 1417 1416 1416 1416 1415 1414 1414 1414 1413 1413 1413 1413 1414 1414 1416 1417 1419
1447 1446 1447 1446 1446 1448 1449 1450 1448 1448 1452 1455 1436 1438 1424 1411 1408 1408 1410 1412 1414 1416 1417 1417 1417 1417 1415 1414 1413 1412 1411 1410 1410 1409 1409 1409 1409 1408 1409 1408 1409 1410 1411 1413
1443 1442 1443 1445 1447 1448 1450 1454 1456 1454 1456 1446 1422 1425 1419 1405 1402 1404 1407 1410 1412 1413 1414 1414 1414 1413 1412 1411 1409 1408 1407 1406 1405 1405 1404 1404 1404 1404 1404 1404 1404 1405 1405 1407
1442 1439 1438 1441 1443 1446 1448 1449 1455 1455 1445 1432 1423 1422 1411 1402 1402 1403 1406 1408 1409 1411 1411 1411 1411 1410 1409 1408 1406 1405 1403 1401 1400 1400 1399 1399 1399 1399 1399 1399 1399 1399 1400 1401
1440 1438 1435 1437 1439 1442 1445 1446 1443 1448 1447 1445 1428 1410 1406 1401 1403 1404 1405 1406 1407 1408 1408 1408 1408 1407 1406 1405 1403 1401 1400 1398 1396 1395 1394 1394 1394 1394 1394 1394 1394 1394 1394 1396
1440 1442 1437 1438 1440 1441 1442 1441 1447 1450 1451 1442 1422 1410 1410 1405 1405 1404 1405 1405 1406 1406 1405 1405 1405 1404 1403 1402 1400 1398 1396 1394 1392 1391 1389 1389 1388 1388 1389 1389 1388 1389 1389 1390
1441 1444 1440 1439 1439 1437 1442 1443 1442 1444 1441 1443 1432 1418 1404 1404 1404 1405 1404 1404 1404 1404 1403 1402 1402 1401 1400 1398 1396 1394 1392 1390 1388 1386 1385 1384 1384 1384 1383 1383 1383 1383 1383 1384
1439 1442 1441 1436 1431 1431 1434 1435 1439 1446 1444 1438 1436 1423 1404 1404 1403 1404 1404 1404 1403 1402 1401 1400 1399 1397 1396 1394 1392 1390 1388 1385 1383 1382 1381 1379 1379 1379 1378 1377 1377 1377 1377 1378
1438 1443 1444 1435 1437 1435 1434 1433 1434 1437 1439 1438 1435 1420 1404 1403 1403 1404 1404 1403 1402 1401 1399 1397 1396 1394 1392 1390 1388 1386 1384 1382 1380 1378 1377 1375 1374 1374 1373 1372 1372 1372 1372 1372
1436 1440 1439 1434 1429 1433 1435 1433 1432 1435 1438 1434 1426 1415 1407 1405 1404 1403 1402 1401 1400 1399 1397 1395 1393 1391 1389 1387 1385 1383 1381 1380 1377 1375 1373 1372 1371 1369 1369 1368 1368 1367 1367 1366
1435 1437 1433 1429 1426 1428 1429 1428 1428 1430 1429 1429 1418 1412 1405 1404 1403 1402 1401 1399 1398 1396 1395 1393 1390 1388 1387 1385 1383 1381 1379 1377 1375 1372 1370 1368 1367 1366 1365 1364 1364 1363 1362 1361
1434 1435 1432 1429 1423 1423 1422 1419 1419 1420 1419 1417 1414 1409 1403 1402 1401 1400 1399 1398 1396 1395 1393 1391 1389 1387 1385 1382 1380 1378 1376 1374 1372 1369 1367 1365 1364 1363 1361 1360 1359 1358 1357 1356
1432 1434 1432 1426 1420 1420 1419 1409 1409 1409 1406 1408 1409 1403 1400 1400 1398 1397 1396 1395 1395 1393 1392 1389 1387 1385 1382 1380 1378 1375 1373 1371 1369 1366 1364 1362 1361 1359 1357 1356 1355 1354 1352 1351
1427 1429 1429 1426 1424 1425 1405 1395 1396 1399 1399 1400 1399 1397 1397 1397 1396 1396 1395 1394 1393 1391 1389 1387 1384 1382 1380 1377 1375 1373 1370 1368 1366 1363 1361 1360 1358 1355 1354 1352 1350 1349 1347 1346
1420 1424 1424 1422 1419 1411 1398 1394 1395 1397 1398 1396 1396 1395 1395 1395 1394 1393 1393 1393 1392 1389 1387 1385 1382 1380 1377 1375 1372 1370 1367 1365 1363 1361 1359 1357 1355 1352 1350 1347 1345 1344 1342 1341
1416 1419 1423 1419 1417 1411 1398 1394 1392 1396 1400 1395 1394 1394 1394 1394 1396 1394 1392 1391 1389 1387 1385 1382 1380 1377 1374 1372 1370 1366 1363 1361 1360 1358 1356 1354 1352 1349 1347 1344 1342 1340 1339 1337
1416 1417 1418 1416 1413 1405 1396 1393 1394 1404 1402 1395 1394 1394 1394 1394 1395 1393 1390 1389 1387 1385 1382 1380 1377 1374 1372 1369 1367 1364 1361 1359 1358 1356 1353 1351 1349 1346 1343 1341 1339 1338 1336 1335
1409 1412 1412 1411 1411 1406 1394 1394 1398 1398 1394 1393 1393 1393 1393 1392 1391 1389 1388 1386 1384 1382 1379 1377 1374 1371 1369 1367 1364 1361 1358 1357 1355 1353 1350 1348 1345 1343 1341 1339 1337 1336 1335 1334
1401 1401 1401 1402 1400 1394 1392 1393 1393 1393 1393 1392 1392 1391 1391 1390 1388 1387 1385 1383 1381 1379 1376 1374 1371 1368 1366 1364 1361 1359 1356 1354 1352 1349 1347 1344 1342 1340 1338 1337 1336 1335 1334 1333
1396 1394 1396 1396 1392 1391 1391 1390 1391 1391 1391 1390 1390 1389 1388 1387 1386 1384 1382 1380 1378 1375 1373 1371 1368 1365 1362 1360 1358 1356 1353 1351 1349 1347 1344 1342 1340 1337 1336 1335 1335 1334 1333 1333
1393 1394 1394 1393 1390 1388 1388 1388 1388 1388 1388 1387 1387 1386 1385 1384 1382 1381 1379 1377 1375 1372 1370 1368 1365 1361 1359 1357 1355 1353 1351 1349 1346 1344 1342 1339 1338 1336 1335 1335 1334 1334 1334 1333
1389 1390 1391 1389 1386 1386 1385 1385 1385 1385 1384 1384 1384 1383 1382 1381 1379 1377 1375 1373 1371 1369 1366 1364 1361 1358 1356 1354 1351 1350 1348 1347 1344 1342 1340 1338 1336 1335 1334 1333 1333 1333 1333 1333